Theta_e
315 316 316 313 311 308 306 307 311 313 319 323 324 324 322 323 323 324 324 323 324 324 324 326 325 325 327 326 328 329 330 331 324 320 318 320 319 318 318 320 321 323 325
315 314 315 315 311 310 308 311 315 319 322 323 323 323 323 323 323 324 324 324 324 325 325 326 326 327 327 327 325 327 329 329 322 320 321 321 320 318 320 322 324 326 327
314 314 315 315 314 317 320 319 320 321 321 322 321 321 322 323 324 324 323 323 323 324 325 325 327 326 330 329 326 327 329 328 323 322 324 322 324 323 322 321 323 325 327
314 314 314 315 315 318 318 318 319 320 320 320 320 320 321 326 324 323 322 323 322 324 324 325 327 327 329 329 327 327 328 325 322 323 322 318 323 325 323 323 323 324 326
313 311 312 313 314 316 317 318 318 319 318 320 321 322 323 323 322 323 325 325 325 325 324 324 326 326 327 327 325 325 323 323 322 322 320 320 320 323 325 326 326 326 325
310 309 310 312 314 315 316 318 319 319 319 320 321 321 323 322 323 322 322 322 324 324 325 325 326 326 327 326 326 323 322 321 320 320 318 319 321 322 323 325 326 326 326
307 307 307 308 310 312 314 315 316 317 318 320 319 320 322 323 322 321 321 322 322 324 325 327 327 327 326 325 326 325 324 319 320 318 317 319 320 322 324 323 324 324 326
305 305 304 305 307 308 308 309 309 309 312 314 315 319 319 320 320 320 321 321 322 321 323 323 323 323 324 323 322 322 323 321 319 321 320 322 322 322 321 322 323 325 325
304 304 304 304 305 307 306 305 304 306 305 309 307 307 309 310 312 317 317 320 321 320 319 322 321 322 322 323 322 322 322 321 320 321 320 321 322 322 322 323 324 324 324
303 303 304 304 304 305 307 308 308 304 303 303 303 304 305 305 304 304 305 309 312 318 320 320 320 321 321 321 322 321 322 322 321 319 320 322 322 322 323 322 321 322 323
303 303 303 303 303 302 302 303 303 303 302 301 302 302 302 303 302 303 303 303 303 304 304 307 308 311 313 316 318 317 318 318 321 321 323 323 323 321 323 323 323 322 323
304 302 302 301 300 299 300 299 299 299 298 297 297 297 297 296 296 296 296 296 297 298 300 302 303 304 304 305 307 309 310 312 313 317 321 320 320 320 321 321 320 321 321
302 302 302 301 300 298 297 297 296 296 295 295 295 295 295 295 295 295 295 295 295 295 295 295 296 296 298 301 303 304 304 306 308 309 310 312 313 315 316 316 317 318 319
302 302 302 302 301 299 297 296 295 295 294 294 294 294 294 294 294 294 294 294 294 294 294 294 294 294 294 294 294 295 297 301 303 304 306 308 310 311 312 315 315 316 316
303 303 303 303 301 300 298 296 295 294 295 294 294 294 294 293 293 293 293 293 293 293 293 293 294 294 294 294 294 294 294 294 294 294 297 303 306 308 309 311 313 313 315
304 303 303 303 302 300 299 297 296 295 294 293 293 293 293 293 293 293 293 293 293 293 293 293 293 292 292 292 293 293 294 294 294 294 294 294 294 302 306 307 309 311 313
304 304 304 303 302 300 297 296 295 294 294 294 293 293 293 293 293 292 292 291 290 290 289 289 289 289 289 289 289 289 290 290 291 291 292 293 293 293 293 301 306 307 310
305 304 304 303 301 299 296 295 294 294 294 293 292 292 291 290 290 289 288 288 288 288 288 287 287 287 287 287 288 288 288 288 288 289 289 290 291 292 293 295 295 304 306
304 304 303 302 299 297 296 295 294 293 292 291 291 290 289 288 288 288 287 287 287 287 287 287 286 286 286 286 286 286 287 287 287 288 288 288 289 289 290 296 298 299 301
304 304 303 300 298 296 294 293 292 292 291 290 289 288 288 288 288 287 287 287 286 286 286 286 286 286 286 285 285 285 285 286 286 286 287 287 287 288 289 292 295 297 299
303 302 300 297 295 295 293 292 292 291 289 289 288 288 287 287 286 286 286 286 286 286 286 286 286 286 285 285 285 285 285 285 286 286 286 286 286 286 287 288 291 293 296
301 299 297 296 294 293 292 291 290 288 288 288 287 286 286 286 286 285 285 285 285 285 285 285 285 285 285 285 285 285 285 285 287 286 285 286 286 286 288 288 290 292 294
300 298 296 295 293 292 291 289 288 288 287 287 286 286 286 286 286 285 285 285 285 284 284 285 285 285 285 285 285 285 285 285 285 287 287 288 287 287 287 287 287 288 290
299 298 297 294 292 291 289 288 287 286 286 287 287 287 287 286 286 285 285 284 284 284 284 284 284 284 284 284 284 285 285 286 286 286 286 287 287 287 286 286 287 289 290
299 297 293 292 290 288 288 287 286 286 286 286 286 286 286 286 285 285 284 284 284 283 283 284 284 284 284 284 285 286 286 286 286 287 287 286 286 286 286 286 286 287 289
296 292 291 290 288 288 287 286 286 286 286 286 286 285 285 285 284 283 283 283 282 282 282 283 283 283 283 283 284 284 284 285 285 286 286 286 286 286 285 285 285 286 287
Wind_Speed
22 17 18 23 28 26 25 24 23 20 20 20 21 23 25 26 28 29 29 30 29 30 31 32 36 37 40 41 43 44 42 50 48 39 39 41 37 37 36 35 34 32 32
20 19 16 11 10 19 19 19 19 17 18 19 21 21 23 25 27 28 29 30 28 27 28 29 32 31 36 42 45 43 45 49 51 44 35 28 35 40 38 38 36 35 32
16 16 13 8 3 2 12 16 16 15 18 19 21 24 24 26 27 27 30 30 29 30 30 29 31 31 42 44 43 44 47 49 49 47 31 15 17 20 33 43 39 37 36
12 12 11 8 3 5 10 16 16 14 16 20 23 25 25 23 23 26 31 31 32 31 31 30 29 30 34 45 46 43 51 53 53 43 37 32 23 15 21 27 33 40 38
11 12 9 7 7 5 2 3 3 7 13 14 16 17 17 16 14 15 19 18 20 21 27 31 29 30 32 25 31 41 40 46 43 45 36 39 40 39 26 17 19 25 36
10 9 7 4 4 2 1 0 2 4 6 4 9 10 13 11 9 5 10 15 13 20 22 24 24 27 29 23 25 22 29 39 37 36 36 35 38 44 43 35 32 27 22
10 11 13 14 11 8 6 6 7 8 7 4 7 10 10 6 0 4 5 9 12 6 2 13 13 14 12 15 14 20 38 43 39 40 37 39 42 38 35 35 39 39 37
10 12 15 19 20 20 17 18 17 17 16 13 12 8 10 7 6 8 8 12 12 12 9 6 7 3 8 19 25 17 16 23 33 35 38 37 41 41 42 43 35 33 36
13 14 17 20 23 23 23 21 22 23 21 20 16 15 14 15 13 11 10 10 10 6 8 7 1 1 2 5 7 12 15 24 35 33 37 36 35 37 37 40 34 35 26
14 15 18 19 19 19 19 20 19 13 14 12 13 12 11 11 12 11 11 9 7 5 6 8 6 5 7 9 9 12 12 11 29 38 36 36 40 37 37 33 32 33 34
15 14 14 13 12 11 9 8 8 9 10 13 13 12 13 12 11 12 13 13 12 11 9 6 6 7 8 9 12 10 12 13 11 6 18 24 32 32 27 26 24 29 33
8 8 7 7 8 10 10 11 10 11 12 13 12 12 12 12 12 13 13 12 12 11 11 9 9 9 10 11 9 9 12 15 18 21 19 17 20 20 20 21 22 24 27
2 2 4 6 8 9 9 10 10 10 10 10 9 9 9 11 13 14 14 14 14 14 12 12 11 11 10 10 11 12 13 15 16 17 19 21 23 26 26 26 28 28 27
3 1 2 4 6 7 8 9 9 10 10 10 11 12 12 13 13 13 14 15 16 16 17 18 18 18 17 16 15 14 15 15 16 18 19 21 21 22 24 27 27 26 29
4 2 1 3 5 6 7 8 9 10 10 10 11 13 13 15 16 17 19 19 20 21 20 19 18 19 20 21 23 23 23 22 21 19 19 21 22 22 24 25 25 30 26
7 5 4 3 4 6 7 8 9 10 12 13 14 15 17 18 19 20 20 22 22 22 22 22 22 22 22 21 21 21 22 24 26 27 26 23 23 25 25 26 27 25 27
10 9 7 6 6 6 6 7 10 12 13 15 16 17 18 19 20 21 23 23 22 22 22 21 22 22 22 22 21 21 22 23 23 24 25 26 24 22 25 29 28 27 28
12 11 9 7 7 8 8 10 11 13 14 14 15 16 18 19 22 24 25 26 27 26 26 25 24 24 21 21 21 22 23 23 22 22 23 25 27 25 21 23 26 30 30
11 10 9 8 8 9 10 11 11 12 13 16 18 21 23 24 25 25 26 26 26 26 26 25 25 25 24 23 23 23 24 24 24 24 24 24 25 26 27 21 24 27 31
11 10 10 10 10 11 10 10 12 15 17 19 21 22 24 25 26 26 25 26 26 26 26 26 25 24 24 22 22 21 23 25 25 26 25 26 24 24 23 24 24 25 27
10 10 10 9 9 10 11 14 16 19 21 23 25 25 24 24 24 26 26 26 27 28 28 28 27 26 24 23 21 20 21 22 23 25 26 25 26 27 25 24 25 28 28
9 8 7 8 10 12 14 17 20 22 23 25 25 25 25 25 26 27 27 27 27 27 28 29 29 28 24 22 21 21 20 20 21 25 25 26 25 25 26 24 23 24 26
7 7 7 9 12 15 17 19 22 24 24 24 24 25 26 26 26 27 28 28 27 27 28 29 31 31 29 27 22 22 22 21 20 20 22 22 24 25 27 29 28 28 25
8 9 11 12 14 17 18 21 23 24 24 25 26 27 28 28 28 28 28 29 29 29 30 31 32 33 34 32 28 23 20 20 23 23 22 20 21 23 24 23 22 19 20
11 11 11 13 15 18 20 22 22 24 26 27 28 28 29 29 30 29 30 31 31 28 27 28 29 31 32 27 23 24 25 26 25 24 26 27 24 25 24 23 21 20 19
9 10 12 15 17 20 21 22 23 25 27 28 29 30 30 30 31 33 34 30 29 24 22 22 23 26 26 26 25 24 24 25 24 24 26 26 25 25 23 23 25 21 19
Wind_Direction
340 322 297 284 252 250 238 231 241 246 228 233 241 248 253 257 260 264 267 268 266 267 262 261 260 261 259 248 242 244 245 229 223 215 220 241 250 249 246 248 244 242 241
359 349 341 330 273 249 229 230 238 225 228 238 252 260 264 264 266 269 269 270 273 276 270 265 257 267 254 251 244 240 235 234 221 214 225 236 245 247 243 245 243 240 241
1 357 355 6 14 264 218 207 211 220 232 251 258 261 264 266 268 272 275 273 272 273 271 264 260 268 256 246 242 239 234 223 214 211 213 223 238 252 250 246 245 244 242
2 0 1 14 352 28 194 212 211 232 249 259 268 269 265 267 278 282 283 282 277 276 260 260 261 262 252 248 240 238 232 221 210 219 219 225 239 242 252 248 247 245 244
18 357 10 1 8 28 24 247 275 284 278 272 271 265 257 259 282 309 305 288 279 278 264 256 256 257 250 248 217 212 213 213 217 217 222 229 240 243 250 262 261 251 245
16 21 25 31 6 15 15 14 292 270 291 308 273 234 215 228 252 314 26 18 328 277 273 256 255 255 247 243 227 225 229 219 220 222 232 238 241 241 245 251 252 254 247
32 45 49 63 77 86 114 117 136 138 119 131 92 109 129 147 172 348 13 15 15 29 187 228 221 221 224 220 208 232 230 219 229 223 230 240 243 250 248 256 257 258 262
48 51 62 68 68 71 70 79 75 74 75 69 62 84 84 77 72 64 54 55 60 29 10 95 71 322 277 258 251 250 240 226 230 233 237 246 249 253 252 250 255 261 259
63 67 65 67 62 58 58 59 57 51 48 52 50 44 42 44 35 33 26 32 32 14 28 26 299 231 239 171 200 244 248 248 251 245 242 249 249 253 251 256 261 269 263
75 70 69 65 66 64 59 58 62 42 45 50 49 49 34 23 19 28 33 34 24 13 1 326 332 337 307 239 255 248 249 252 259 253 257 255 254 260 254 250 254 261 264
76 65 62 62 59 61 66 62 58 51 48 50 39 36 41 34 28 25 23 22 20 16 12 355 327 317 306 301 290 291 294 289 287 292 251 260 257 249 257 257 259 266 270
75 36 31 43 49 53 56 56 56 50 48 45 41 38 36 35 35 39 37 32 27 22 15 4 348 337 328 321 310 286 267 272 272 277 267 265 260 266 263 270 268 272 270
298 349 32 43 49 51 50 47 43 44 45 46 40 32 27 21 20 17 14 10 8 7 4 2 359 351 335 320 310 302 294 288 282 277 271 270 269 269 270 269 270 271 276
256 307 17 29 33 33 32 31 29 27 22 18 13 8 11 12 10 5 359 355 355 349 349 348 347 344 341 336 329 320 314 305 294 287 282 283 279 273 269 264 262 266 264
224 235 309 352 4 8 10 12 10 6 359 356 351 348 350 351 350 349 349 348 347 345 343 339 335 330 328 327 326 324 323 319 313 307 300 287 278 271 270 274 267 255 266
223 230 250 294 324 343 347 346 345 343 344 344 342 342 340 338 337 336 337 336 334 331 329 328 326 325 324 320 316 313 310 310 311 311 309 306 301 286 274 266 268 266 265
225 228 241 263 289 303 314 328 335 334 332 330 329 330 331 328 327 326 325 324 324 324 323 322 321 320 321 319 316 312 308 305 304 302 300 299 298 297 296 281 270 267 263
228 231 241 265 281 304 315 317 318 316 317 319 321 323 328 330 330 331 331 330 329 329 329 329 328 326 326 319 314 311 309 307 304 303 303 301 299 295 288 288 286 269 269
234 231 241 260 280 293 300 299 300 311 321 326 331 332 331 329 327 325 325 324 322 323 322 322 322 321 321 319 316 312 308 305 304 303 302 303 300 298 296 292 284 281 267
220 227 244 260 269 272 281 304 322 322 324 325 327 328 325 324 323 321 320 319 319 318 318 317 318 317 317 317 313 310 306 304 303 301 299 298 300 299 295 291 290 291 285
218 230 242 255 277 300 312 321 324 322 323 323 322 323 324 324 322 319 319 318 316 313 313 312 311 311 313 311 308 304 301 300 299 298 299 298 297 298 295 290 283 283 289
225 242 266 292 304 313 319 320 321 322 324 325 325 325 324 322 320 318 317 315 313 311 310 309 308 310 312 310 308 302 298 298 293 294 299 300 299 295 298 294 289 285 281
242 264 284 299 307 310 313 318 320 321 322 323 323 323 322 321 319 317 316 315 313 312 310 310 310 311 311 310 308 301 300 299 296 297 299 297 298 296 295 293 287 288 277
260 279 290 296 304 312 319 322 321 321 321 321 322 322 320 320 318 316 316 315 313 313 312 311 311 312 313 314 317 313 306 302 300 299 298 298 296 293 293 301 303 301 291
266 280 293 305 312 317 321 322 320 321 321 321 322 322 320 319 318 316 317 315 314 314 311 306 304 304 306 308 307 302 297 296 296 296 291 292 290 293 297 300 304 306 290
278 290 301 309 314 317 321 321 321 322 323 323 323 322 321 322 321 321 320 318 319 316 309 305 303 304 300 302 303 300 294 291 289 287 286 286 288 287 291 294 294 293 302